Weather observations for the past three days for
St. Louis Downtown Airport
Metric (Imperial)
Date Time (cdt) Wind (kph) Vis. (km) Weather Sky Cond. Temperature (ºC) Relative Humidity Wind Chill (°C) Heat Index (°C) Pressure Precipitation (cm)
Air Dwpt 6 hour altimeter (cm) sea level (mb) 1 hr 3 hr 6 hr
Max. Min.
03 22:53 SE 6 16.09 Fair CLR 28.9 21.7 65% 32 76.05 1013.2
03 21:53 S 7 16.09 Fair CLR 29.4 21.7 63% 32 76.02 1013.1
03 20:53 S 7 16.09 Fair CLR 29.4 21.7 63% 32 76 1012.7
03 19:53 S 7 16.09 Fair CLR 31.7 21.7 55% 35 75.97 1012.2
03 18:53 SE 7 16.09 Fair CLR 33.9 21.7 37.8 33.9 49% 38 75.95 1011.9
03 17:53 S 7 16.09 A Few Clouds FEW075 36.1 21.7 43% 41 75.95 1011.9
03 16:53 SE 11 16.09 Fair CLR 37.2 20 37% 40 75.95 1011.9
03 15:53 SW 7 16.09 Fair CLR 37.8 20 35% 41 75.97 1012.4
03 14:53 W 7 16.09 A Few Clouds FEW070 36.7 20 38% 40 76.02 1012.9
03 13:53 SW 11 16.09 A Few Clouds FEW060 36.7 19.4 36% 39 76.07 1013.5
03 12:53 Vrbl 11 16.09 A Few Clouds FEW035 36.1 21.1 36.1 24.4 42% 40 76.12 1014.4
03 11:53 W 11 16.09 Fair CLR 35.6 21.1 43% 39 76.15 1014.8
03 10:53 Vrbl 9 16.09 Fair CLR 33.9 22.2 50% 38 76.17 1015.1
03 09:53 Vrbl 7 16.09 Fair CLR 31.7 21.7 55% 35 76.17 1015.1
03 08:53 SW 9 16.09 Fair CLR 29.4 22.2 65% 33 76.2 1015.4
03 07:53 Calm 16.09 Fair CLR 27.2 21.7 72% 29 76.2 1015.3
03 06:53 S 6 16.09 Fair CLR 23.9 21.1 26.1 22.8 84% 24 76.17 1015.0
03 05:53 Calm 16.09 Fair CLR 23.9 21.1 84% 24 76.15 1014.7
03 04:53 S 6 16.09 Fair CLR 23.3 21.1 88% 76.12 1014.4
03 03:53 Calm 16.09 Fair CLR 23.3 21.7 91% 76.12 1014.4
03 02:53 Calm 16.09 Fair CLR 24.4 21.1 82% 25 76.12 1014.2
03 01:53 S 7 16.09 Fair CLR 26.1 21.1 74% 28 76.12 1014.1
03 00:53 Calm 16.09 Fair CLR 26.1 21.7 33.3 25.6 77% 28 76.12 1014.3
02 23:53 Calm 16.09 Fair CLR 25.6 21.7 79% 27 76.1 1014.2
02 22:53 S 6 16.09 Fair CLR 27.8 21.1 67% 30 76.1 1014.2
02 21:53 S 7 16.09 Fair CLR 30 21.1 59% 33 76.1 1014.0
02 20:53 S 7 16.09 Fair CLR 30.6 21.7 59% 34 76.07 1013.7
02 19:53 S 9 16.09 Fair CLR 31.7 21.1 53% 35 76.05 1013.2
02 18:53 SE 11 16.09 Fair CLR 33.3 21.1 38.3 33.3 49% 37 76.02 1013.1
02 17:53 SE 15 G 28 16.09 Fair CLR 36.1 20 39% 39 76.02 1012.9
02 16:53 Vrbl 9 16.09 Fair CLR 37.8 18.3 32% 40 76.02 1013.1
02 15:53 S 7 16.09 Partly Cloudy SCT080 36.7 18.3 34% 38 76.07 1013.6
02 14:53 Calm 16.09 Mostly Cloudy BKN075 37.8 20 35% 41 76.12 1014.1
02 13:53 Vrbl 9 16.09 Partly Cloudy SCT070 36.7 21.1 40% 41 76.17 1014.9
02 12:53 W 7 16.09 Fair CLR 36.1 20 36.7 23.3 39% 39 76.2 1015.4
02 11:53 Vrbl 9 16.09 Fair CLR 35.6 20 40% 38 76.25 1016.1
02 10:53 W 15 G 31 16.09 Fair CLR 34.4 21.1 46% 38 76.28 1016.5
02 09:53 Vrbl 6 16.09 Fair CLR 31.7 21.7 55% 35 76.28 1016.6
02 08:53 SW 11 16.09 Fair CLR 30 21.1 59% 33 76.3 1016.8
02 07:53 Calm 16.09 Fair CLR 27.2 21.7 72% 29 76.3 1016.8
02 06:53 Calm 16.09 Fair CLR 23.3 21.1 27.2 22.8 88% 76.28 1016.3
02 05:53 Calm 16.09 Fair CLR 22.8 21.7 94% 76.25 1016.0
02 04:53 Calm 16.09 Fair CLR 23.9 21.7 88% 24 76.23 1015.6
02 03:53 Calm 16.09 Fair CLR 24.4 21.7 85% 25 76.2 1015.3
02 02:53 S 6 16.09 Fair CLR 25 21.1 79% 26 76.2 1015.3
02 01:53 Calm 16.09 Fair CLR 25.6 21.7 79% 27 76.2 1015.5
02 00:53 S 6 16.09 Fair CLR 27.2 21.1 33.3 26.1 69% 29 76.2 1015.2
01 23:53 S 6 16.09 Fair CLR 28.3 21.1 65% 31 76.2 1015.2
01 22:53 S 7 16.09 Fair CLR 29.4 20.6 59% 32 76.17 1015.1
01 21:53 Calm 16.09 Fair CLR 27.8 20.6 65% 30 76.17 1015.1
01 20:53 S 7 16.09 Fair CLR 29.4 20.6 59% 32 76.15 1014.6
01 19:53 S 9 16.09 Fair CLR 31.1 20.6 54% 34 76.1 1014.1
01 18:53 S 7 16.09 Fair CLR 33.3 21.1 37.8 33.3 49% 37 76.1 1014.2
01 17:53 SE 9 16.09 A Few Clouds FEW080 36.1 20.6 40% 39 76.12 1014.3
01 16:53 S 11 16.09 A Few Clouds FEW080 37.2 19.4 35% 40 76.1 1014.1
01 15:53 SE 13 16.09 Fair CLR 37.8 18.9 33% 40 76.12 1014.4
01 14:53 Calm 16.09 A Few Clouds FEW080 36.1 18.3 35% 38 76.17 1015.0
01 13:53 Calm 16.09 Fair CLR 36.7 18.9 35% 39 76.23 1015.7
01 12:53 Vrbl 7 16.09 Fair CLR 36.1 20 36.1 22.2 39% 39 76.28 1016.4
01 10:53 SW 7 16.09 Fair CLR 32.8 21.7 52% 36 76.33 1017.2
01 09:53 Vrbl 9 16.09 Fair CLR 30.6 21.1 57% 33 76.35 1017.3
01 08:53 Calm 16.09 Fair CLR 28.3 21.7 67% 31 76.35 1017.5
01 07:53 S 6 16.09 Fair CLR 25 21.1 79% 26 76.35 1017.4
01 06:53 S 6 16.09 Fair CLR 22.2 20.6 24.4 21.1 91% 76.3 1016.9
01 05:53 Calm 16.09 Fair CLR 21.7 20.6 94% 76.28 1016.4
01 04:53 S 7 16.09 Fair CLR 22.8 20.6 87% 76.28 1016.2
01 03:53 S 7 16.09 Fair CLR 22.8 20.6 87% 76.23 1015.8
01 02:53 S 7 16.09 Fair CLR 23.3 20.6 85% 76.23 1015.6
01 01:53 Calm 16.09 Fair CLR 22.8 20.6 87% 76.2 1015.5
01 00:53 SE 6 16.09 Fair CLR 24.4 21.1 33.3 23.3 82% 25 76.23 1015.6
31 23:53 SE 7 16.09 Fair CLR 24.4 20.6 79% 25 76.2 1015.4
Date Time (cdt) Wind (kph) Vis. (km) Weather Sky Cond. Air Dwpt Max. Min. Relative Humidity Wind Chill (°C) Heat Index (°C) altimeter (cm) sea level (mb) 1 hr 3 hr 6 hr
6 hour
Temperature (ºC) Pressure Precipitation (cm)